Location: Bandys
(35.4750°N, 81.0830°W)
Time: 15:39:45
(UTC-04:00)

Daily predictions for brighter satellites

Satellite Brightness Start Highest point End
(mag) Time Altitude Azimuth Time Altitude Azimuth Time Altitude Azimuth
ATLAS 2AS CENTAUR R/B 4.4 20:18:15 10° N 20:24:03 22° NE 20:29:34 10° E
COSMOS 2428 3.1 20:19:23 10° S 20:24:43 42° ESE 20:30:03 10° NE
CZ-2D R/B 3.8 20:21:50 10° SE 20:25:21 38° ENE 20:28:54 10° N
Cosmos 2181 Rocket 4.3 20:18:55 10° N 20:25:23 79° W 20:31:48 10° S
FengYun 1-2 T 4.4 20:20:15 10° SSE 20:25:51 89° WSW 20:31:31 10° NNW
H-2A R/B 2.8 20:20:56 10° W 20:26:57 30° SSW 20:29:15 10° SE
Cosmos 2333 4.5 20:22:38 10° S 20:28:01 46° ESE 20:33:23 10° NE
FREGAT/IRIS 2.5 20:25:59 10° SSE 20:28:56 89° WSW 20:31:54 10° NNW
Cosmos 1844 Rocket 3.6 20:30:58 10° N 20:36:01 32° ENE 20:41:00 10° ESE
Cosmos 1455 3.8 20:34:17 10° SE 20:36:47 17° E 20:39:18 10° NE
Cosmos 2263 Rocket 3.3 20:32:31 10° NNW 20:37:58 48° WSW 20:43:21 10° S
Cosmos 2237 Rocket 3.5 20:38:07 10° SE 20:41:40 17° E 20:45:13 10° ENE
Cosmos 2219 Rocket 2.6 20:37:13 10° S 20:42:26 40° ESE 20:47:40 10° NE
Cosmos 2074 Rocket 4.1 20:36:33 10° S 20:42:51 87° W 20:49:11 10° N
ERS-2 2.4 20:40:14 10° SSE 20:43:45 47° ENE 20:47:17 10° N
Cosmos 1892 3.9 20:41:58 10° NNE 20:45:10 24° ENE 20:47:45 13° SE
NOSS 2-1 (E) 3.0 20:43:57 10° SSW 20:47:34 77° ESE 20:51:24 10° NE
Cosmos 1610 Rocket 4.4 20:43:13 10° S 20:49:16 69° E 20:55:23 10° NNE
ATLAS CENTAUR R/B 2.1 20:46:53 10° SSE 20:49:51 24° ESE 20:52:53 10° ENE
Cosmos 2278 Rocket 4.0 20:49:32 10° NNE 20:52:43 15° NE 20:55:31 11° E
USA 186 1.3 20:55:32 23° SE 20:56:30 38° ENE 20:58:37 10° N
Resurs 1-3 4.0 20:53:53 11° SE 20:57:46 42° ENE 21:01:55 10° N
NOSS 3-3 (A) 3.9 20:53:15 10° SSW 20:59:04 64° ESE 21:05:24 10° NE
NOSS 3-3 (C) 3.9 20:53:21 10° SSW 20:59:10 63° ESE 21:05:30 10° NE
Cosmos 1666 Rocket 3.9 20:54:58 10° N 20:59:16 44° E 21:03:03 13° SSE
H-2A R/B 4.1 20:59:14 10° ENE 20:59:43 10° ENE 21:00:10 10° ENE
OAO 2 Rocket 3.3 20:55:54 10° W 21:01:08 84° S 21:04:58 18° E
YAOGAN 6 2.6 21:01:47 13° SSE 21:04:51 60° ENE 21:08:26 10° N
Meteor 2-21 Rocket 4.5 20:59:03 10° S 21:05:01 60° E 21:11:05 10° NNE
Cosmos 494 Rocket 4.2 21:02:41 10° NNW 21:07:53 74° WSW 21:13:05 10° S
Cosmos 1809 Rocket 4.4 21:02:52 10° S 21:09:01 89° E 21:15:14 10° N
Cosmos 1340 3.1 21:09:47 10° SSW 21:13:32 64° W 21:17:18 10° N
USA 267 3.9 21:08:05 10° ENE 21:13:36 29° SE 21:19:05 10° S
Sich 1 2.9 21:10:08 10° N 21:14:26 76° E 21:18:07 13° SSE
Cosmos 1151 Rocket 3.8 21:13:26 25° ESE 21:14:47 30° E 21:18:31 10° NNE
In-Cosmos 22 Rocket 4.3 21:09:29 10° NNW 21:14:57 73° W 21:20:15 10° S
SAR-Lupe-3 4.5 21:11:32 10° NNE 21:15:06 62° ESE 21:18:38 10° S
Nadezhda 3 Rocket 4.0 21:09:30 10° N 21:15:49 72° E 21:22:09 10° SSE
OAO 1 4.5 21:11:33 10° W 21:17:04 83° S 21:20:26 24° E
Cosmos 2251 Rocket 3.5 21:13:46 10° NNW 21:19:10 75° ENE 21:23:05 19° SSE
Cosmos 1939 Rocket 2.7 21:16:06 15° SSE 21:19:13 88° ENE 21:23:07 10° N
SJ-6B 4.4 21:16:23 10° SSW 21:20:09 37° W 21:23:54 10° NNW
Envisat 4.0 21:18:41 10° S 21:23:32 47° W 21:28:26 10° NNW
Meteor 2-14 Rocket 4.4 21:22:26 10° S 21:28:31 86° W 21:34:40 10° N
Cosmos 1825 3.7 21:26:08 10° NNE 21:28:24 21° ENE 21:28:24 21° ENE
SL-16 R/B 4.2 21:33:18 12° ENE 21:33:18 12° ENE 21:33:53 10° ENE
Cosmos 2098 Rocket 4.3 21:31:01 26° E 21:31:01 26° E 21:34:07 10° NE
Meteor 2-3 Rocket 3.7 21:25:42 10° N 21:31:17 66° E 21:34:38 25° SSE
Cosmos 1633 Rocket 3.0 21:28:52 10° N 21:33:14 88° W 21:35:51 24° S
Cosmos 2228 Rocket 3.1 21:32:02 29° SSE 21:34:01 56° E 21:38:19 10° NNE
Meteor 2-16 Rocket 4.4 21:31:14 10° S 21:37:23 89° W 21:43:33 10° N
SL-8 R/B 3.5 21:33:06 10° SW 21:37:52 78° SE 21:41:34 17° ENE
Cosmos 1515 Rocket 3.5 21:37:19 29° SSE 21:39:30 66° E 21:43:56 10° NNE
SL-24 R/B - RUBIN 2 3.5 21:36:46 10° NNW 21:41:07 79° WSW 21:42:34 41° SSE
ARGOS 3.7 21:44:33 36° E 21:45:29 39° ENE 21:50:26 10° N
GEOS 3 Rocket 3.6 21:46:54 10° NE 21:52:09 58° ESE 21:57:17 10° SSW
Resurs 01 Rocket 2.8 21:52:33 16° SSW 21:55:42 40° W 21:59:54 10° NNW
Cosmos 1980 3.6 21:51:30 10° SSW 21:57:11 87° WNW 22:02:54 10° NNE
ATLAS 3B CENTAUR R/B 4.4 21:52:21 10° W 21:59:48 19° SW 22:03:20 13° SSW
Sakura Rocket 4.5 21:57:52 10° WSW 22:00:00 22° SW 22:00:00 22° SW
Cosmos 1959 Rocket 4.3 22:00:08 30° S 22:03:24 78° E 22:09:33 10° N
Cosmos 2333 Rocket 3.2 21:58:07 10° SW 22:03:32 46° WNW 22:08:58 10° N
Cosmos 1727 Rocket 4.3 21:58:44 10° N 22:04:36 44° E 22:04:57 44° E
Spot 2 Rocket 4.3 22:03:43 23° SSW 22:06:36 48° W 22:11:32 10° NNW
Meteor 2-10 Rocket 3.6 22:11:14 63° ESE 22:11:38 65° E 22:17:23 10° NNE
Cosmos 1455 4.5 22:09:05 10° SW 22:12:13 24° WNW 22:15:22 10° NNW
Cosmos 1470 Rocket 4.0 22:10:01 10° NNW 22:14:20 58° W 22:14:52 54° SW
Cosmos 2218 Rocket 4.0 22:11:56 27° S 22:15:41 82° W 22:22:07 10° N
ATLAS 2AS CENTAUR R/B 2.8 22:08:21 10° NNW 22:16:12 88° NE 22:18:17 52° SSE
SL-08 R/B 4.4 22:15:09 48° S 22:17:05 81° E 22:23:29 10° N
Cosmos 1844 Rocket 4.2 22:14:53 10° NW 22:19:47 31° WSW 22:22:47 19° SSW
Terra 4.1 22:21:55 13° NE 22:21:55 13° NE 22:22:54 10° NNE
ATLAS 2A CENTAUR R/B 4.1 22:08:59 10° SW 22:24:09 38° S 22:24:57 38° SSE
Cosmos 2237 Rocket 2.8 22:19:43 10° SW 22:25:11 53° WNW 22:30:42 10° NNE
Cosmos 1408 4.1 22:22:48 10° NNW 22:25:16 35° NW 22:25:16 35° NW
Cosmos 2219 Rocket 4.3 22:21:50 10° WSW 22:26:28 25° WNW 22:31:07 10° N
ATLAS CENTAUR R/B 3.7 22:25:58 10° W 22:28:44 20° NW 22:31:36 10° N
SPOT 5 4.2 22:30:50 28° NNE 22:30:50 28° NNE 22:33:20 10° N
Cosmos 2366 rocket 4.2 22:27:19 35° SSW 22:30:03 70° W 22:36:18 10° N
MetOp-A 4.2 22:33:31 70° WSW 22:33:42 71° WSW 22:39:03 10° NNW
USA 81 4.4 22:28:44 10° N 22:32:58 55° NNE 22:32:58 55° NNE
Cosmos 2278 Rocket 2.2 22:31:43 10° NNW 22:37:22 73° WSW 22:37:22 73° WSW
H-2A R/B 2.2 22:39:07 67° NNW 22:39:07 67° NNW 22:43:29 10° NNW
NOSS 3-4 (A) 4.2 22:39:32 10° NNW 22:46:24 49° NE 22:46:43 48° ENE
NOSS 3-4 (C) 4.2 22:39:38 10° NNW 22:46:30 48° NE 22:46:49 48° ENE
ERS-1 Rocket 3.6 22:50:18 54° NW 22:50:18 54° NW 22:54:18 10° NNW
Cosmos 407 Rocket 4.4 22:44:32 10° NNW 22:48:01 42° N 22:48:01 42° N
USA 267 3.5 22:50:21 10° NE 22:56:50 67° NW 23:03:18 10° WSW
Cosmos 2344 3.5 23:10:53 79° NE 23:10:53 79° NE 23:18:25 10° NNE
SL-16 R/B 3.1 23:15:04 44° NNW 23:15:04 44° NNW 23:19:22 10° NNE
USA 234 4.4 23:27:52 33° NE 23:28:03 33° NNE 23:33:44 10° NNW
